ASTRA 1D 1 23331U 94070A 24109.03340432 -.00000183 00000-0 00000-0 0 9990 2 23331 11.1089 34.0780 0006109 72.6795 113.4516 0.98952791108121 ASTRA 1F 1 23842U 96021A 24109.91876575 -.00000281 00000-0 00000-0 0 9993 2 23842 3.3798 83.1877 0002142 342.8819 246.1822 0.99121056 44274 AMC-1 (GE-1) 1 24315U 96054A 24109.83571365 .00000034 00000-0 00000-0 0 9990 2 24315 7.2267 67.1098 0006027 239.4106 277.8365 0.99501715 38389 AMC-2 (GE-2) 1 24713U 97002A 24109.09875826 -.00000266 00000-0 00000-0 0 9991 2 24713 9.1807 51.7108 0003409 59.1249 101.3653 0.99473926 99569 AMC-3 (GE-3) 1 24936U 97050A 24109.87783258 -.00000260 00000-0 00000-0 0 9998 2 24936 6.2020 72.7806 0003177 303.6888 75.0077 1.00271479 44522 NSS 5 (INTELSAT 803) 1 24957U 97053A 24109.67324109 -.00000242 00000-0 00000-0 0 9998 2 24957 8.8264 54.5628 0001945 249.1496 124.9813 0.99107068 97139 ASTRA 1G 1 25071U 97076A 24109.85954797 .00000025 00000-0 00000-0 0 9991 2 25071 7.6734 61.9911 0004646 115.9177 60.8474 0.99035091 96552 NSS 806 (INTELSAT 806) 1 25239U 98014A 24109.87043566 .00000050 00000-0 00000-0 0 9993 2 25239 5.1045 79.0803 0005452 28.9206 303.4148 0.99076299 39149 ASTRA 2A 1 25462U 98050A 24109.47399524 .00000067 00000-0 00000-0 0 9993 2 25462 5.0972 78.1218 0003295 298.1943 58.5712 1.00271540 38410 ASTRA 1H 1 25785U 99033A 24109.67202278 -.00000239 00000-0 00000-0 0 9996 2 25785 8.9212 55.0950 0007175 117.5776 249.5658 0.98946063 43280 AMC-4 (GE-4) 1 25954U 99060A 24109.87139292 .00000032 00000-0 00000-0 0 9991 2 25954 3.2110 82.9430 0001225 300.1293 33.7321 0.99131528 35586 ASTRA 2B 1 26494U 00054A 24109.80864963 -.00000158 00000-0 00000-0 0 9999 2 26494 7.7275 63.5977 0013608 138.0366 237.0291 0.98917034 38834 AMC-7 (GE-7) 1 26495U 00054B 24109.68063800 -.00000074 00000-0 00000-0 0 9994 2 26495 4.8920 79.6266 0001378 102.3043 286.5664 0.99135263 86143 NSS 11 (AAP-1) 1 26554U 00059A 24109.83452229 .00000022 00000-0 00000-0 0 9991 2 26554 0.0819 79.1500 0002955 312.8098 291.8941 1.00276278 33379 AMC-6 (GE-6) 1 26580U 00067A 24109.72136597 .00000100 00000-0 00000-0 0 9991 2 26580 0.0622 73.2845 0002942 326.0144 288.6977 1.00272814 85970 ASTRA 2D 1 26638U 00081A 24109.83571365 .00000046 00000-0 00000+0 0 9997 2 26638 8.7429 55.7008 0000290 71.9018 96.8637 0.98998576 85417 AMC-8 (GE-8) 1 26639U 00081B 24110.10090885 -.00000246 00000-0 00000+0 0 9996 2 26639 4.0843 82.0958 0005169 256.3011 235.4424 0.99152792 85302 ASTRA 2C 1 26853U 01025A 24109.87774556 -.00000259 00000-0 00000-0 0 9994 2 26853 6.2229 72.6085 0003031 308.4087 69.9202 1.00275167 37133 ASTRA 3A 1 27400U 02015B 24109.58391352 .00000056 00000-0 00000+0 0 9993 2 27400 8.8374 54.5209 0001829 318.8022 266.4425 0.99086207 80732 NSS 7 1 27414U 02019A 24109.74103308 -.00000237 00000-0 00000-0 0 9995 2 27414 7.4372 65.3742 0003614 3.1847 5.5789 0.99083449 80645 NSS 6 1 27603U 02057A 24109.87000056 .00000056 00000-0 00000-0 0 9995 2 27603 3.3318 83.9970 0005028 253.8910 71.3851 0.99122762 78094 AMC-9 (GE-12) 1 27820U 03024A 24109.87394825 -.00000218 00000-0 00000-0 0 9992 2 27820 5.9354 74.3997 0018544 329.3047 240.3359 0.99032611 76174 AMC-10 (GE-10) 1 28154U 04003A 24109.88392417 -.00000236 00000-0 00000-0 0 9997 2 28154 4.6786 77.6182 0003104 2.8817 43.7908 0.99123148 73758 AMC-11 (GE-11) 1 28252U 04017A 24110.17480030 -.00000052 00000-0 00000+0 0 9999 2 28252 0.0209 85.1446 0001553 266.9253 167.5225 1.00266368 72792 AMC-15 1 28446U 04041A 24109.87121887 -.00000092 00000-0 00000-0 0 9993 2 28446 0.0153 86.8369 0002619 293.0659 36.1542 1.00269753 71391 AMC-16 1 28472U 04048A 24109.83292892 .00000088 00000-0 00000-0 0 9994 2 28472 2.5466 86.1948 0002631 233.4270 249.9707 0.99102909 70663 NSS 10 (AMC-12) 1 28526U 05003A 24109.88470736 -.00000251 00000-0 00000-0 0 9999 2 28526 4.4665 79.8524 0003117 298.1168 110.5456 1.00273246 45244 ASTRA 1KR 1 29055U 06012A 24110.06229882 .00000116 00000-0 00000+0 0 9992 2 29055 0.0179 274.1918 0001605 48.4666 286.6078 1.00270339 65832 AMC-18 1 29644U 06054B 24109.92259476 -.00000266 00000-0 00000+0 0 9994 2 29644 0.5457 105.6639 0004803 69.2544 158.9205 0.98862270 63587 ASTRA 1L 1 31306U 07016A 24109.25165694 .00000113 00000-0 00000-0 0 9996 2 31306 0.0502 355.8872 0004589 341.6025 339.1406 1.00269064 37089 ASTRA 4A (SIRIUS 4) 1 32299U 07057A 24109.89920806 .00000029 00000-0 00000-0 0 9993 2 32299 0.0592 70.9915 0002841 310.3476 154.6759 1.00273439 43747 AMC-21 1 33275U 08038B 24110.18035189 .00000035 00000-0 00000+0 0 9999 2 33275 0.9045 90.7062 0002734 302.7682 114.3154 1.00267165 57557 ASTRA 1M 1 33436U 08057A 24110.06229882 .00000117 00000-0 00000+0 0 9992 2 33436 0.0820 84.3132 0002843 342.9286 182.0206 1.00272705 56568 CIEL-2 1 33453U 08063A 24109.72197513 .00000059 00000-0 00000-0 0 9990 2 33453 0.7198 91.6757 0010690 315.8726 284.1133 0.99023176 56200 NSS 9 1 33749U 09008A 24110.23186892 .00000069 00000-0 00000+0 0 9994 2 33749 0.0166 89.1835 0002198 285.7495 99.4206 1.00269770 55658 SES 7 (PROTOSTAR 2) 1 34941U 09027A 24109.80443260 -.00000349 00000-0 00000-0 0 9999 2 34941 0.0783 79.1322 0001255 217.0606 309.0299 1.00268214 54702 NSS 12 1 36032U 09058A 24109.68838302 .00000066 00000-0 00000-0 0 9992 2 36032 0.0345 70.6834 0003131 332.4004 109.0127 1.00273574 53007 SES 1 1 36516U 10016A 24109.87208910 -.00000118 00000-0 00000-0 0 9991 2 36516 0.0533 64.1510 0002712 327.4024 28.8553 1.00272205 51113 ASTRA 3B 1 36581U 10021A 24109.66381650 .00000133 00000-0 00000-0 0 9995 2 36581 0.0367 47.7153 0003583 355.4327 66.6004 1.00273427 50964 SES 3 1 37748U 11035A 24109.87174101 -.00000105 00000-0 00000-0 0 9991 2 37748 0.0514 60.1930 0003176 329.7987 28.2976 1.00271848 46670 ASTRA 1N 1 37775U 11041A 24109.53804387 .00000115 00000-0 00000-0 0 9997 2 37775 0.0932 56.7665 0006004 332.6136 30.6290 1.00272857 36601 SES 2 1 37809U 11049A 24109.87487382 -.00000200 00000-0 00000-0 0 9998 2 37809 0.0184 302.8454 0002541 82.0296 50.5336 1.00273258 46041 QUETZSAT 1 1 37826U 11054A 24109.87687535 -.00000245 00000-0 00000-0 0 9994 2 37826 0.0262 97.2249 0002498 287.3756 61.5517 1.00268748 41963 SES 4 1 38087U 12007A 24110.10256229 -.00000171 00000-0 00000+0 0 9990 2 38087 0.0142 82.4658 0002275 311.8035 188.3449 1.00272701 44572 SES 5 1 38652U 12036A 24110.10795767 .00000030 00000-0 00000+0 0 9998 2 38652 0.0353 333.3375 0002000 51.0874 227.1124 1.00271252 43153 ASTRA 2F 1 38778U 12051A 24110.11256987 .00000147 00000-0 00000+0 0 9990 2 38778 0.0661 252.5400 0001310 22.0207 1.8620 1.00268574 42370 SES 6 1 39172U 13026A 24109.88409821 -.00000265 00000-0 00000-0 0 9994 2 39172 0.0388 298.7514 0002226 76.6809 109.7968 1.00271195 39814 O3B FM5 1 39188U 13031A 24109.31015221 -.00000029 00000-0 00000-0 0 9990 2 39188 0.0550 22.1091 0002843 2.3195 335.5833 5.00114999197514 O3B FM4 1 39189U 13031B 24109.96529608 -.00000027 00000-0 00000+0 0 9998 2 39189 0.0598 354.3780 0002771 30.1132 335.5208 5.00114985197670 O3B FM2 1 39190U 13031C 24107.85852389 -.00000031 00000-0 00000-0 0 9997 2 39190 0.0632 350.8118 0002661 31.2285 337.9691 5.00115510197527 O3B PFM 1 39191U 13031D 24109.28329124 -.00000029 00000-0 00000-0 0 9990 2 39191 0.0535 12.7969 0002598 15.6455 331.5703 5.00116278197157 ASTRA 2E 1 39285U 13056A 24109.25357142 .00000144 00000-0 00000-0 0 9996 2 39285 0.0850 313.5439 0002557 77.5465 295.5764 1.00275451 38513 SES 8 1 39460U 13071A 24110.12588434 -.00000273 00000-0 00000+0 0 9999 2 39460 0.0036 129.9589 0002384 276.8649 301.2055 1.00274549 37968 ASTRA 5B 1 39617U 14011B 24109.62280601 .00000132 00000-0 00000-0 0 9990 2 39617 0.0658 310.0332 0003187 49.7998 95.0780 1.00272277 36752 O3B FM3 1 40079U 14038A 24109.33761559 -.00000028 00000-0 00000-0 0 9992 2 40079 0.0578 1.7347 0003473 70.0741 288.2275 5.00114630173533 O3B FM7 1 40080U 14038B 24109.48423255 -.00000028 00000-0 00000-0 0 9998 2 40080 0.0618 359.9034 0002964 349.6976 10.3915 5.00116161178373 O3B FM6 1 40081U 14038C 24109.51119955 -.00000028 00000-0 00000-0 0 9992 2 40081 0.0573 0.7697 0002606 27.5185 331.7245 5.00115405178328 O3B FM8 1 40082U 14038D 24109.96449094 -.00000027 00000-0 00000+0 0 9990 2 40082 0.0583 0.5113 0002788 29.1361 330.3672 5.00115428178656 O3B FM10 1 40348U 14083A 24108.39182889 -.00000030 00000-0 00000-0 0 9992 2 40348 0.0511 7.7825 0002639 18.5458 333.6831 5.00115584170338 O3B FM11 1 40349U 14083B 24108.80483052 -.00000029 00000-0 00000-0 0 9993 2 40349 0.0554 9.8745 0002252 3.0991 347.0305 5.00115632170375 O3B FM12 1 40350U 14083C 24109.43180431 -.00000028 00000-0 00000-0 0 9999 2 40350 0.0552 8.9072 0002465 19.0246 332.0799 5.00115662170413 O3B FM9 1 40351U 14083D 24108.05924659 -.00000030 00000-0 00000-0 0 9998 2 40351 0.0563 10.6803 0002624 12.6567 336.6729 5.00115119170498 ASTRA 2G 1 40364U 14089A 24109.82622818 .00000145 00000-0 00000-0 0 9992 2 40364 0.0508 40.7772 0004395 2.6140 129.6693 1.00268659 34058 SES 9 1 41380U 16013A 24109.91371844 -.00000349 00000-0 00000-0 0 9997 2 41380 0.0142 286.1281 0001933 129.0864 229.5215 1.00271557 29521 SES 10 1 42432U 17017A 24109.52090042 -.00000278 00000-0 00000+0 0 9996 2 42432 0.0076 22.2007 0002576 9.7907 295.7393 1.00271039 25801 SES 15 1 42709U 17026A 24109.59392681 .00000055 00000-0 00000-0 0 9997 2 42709 0.0109 68.3058 0000470 288.4235 295.1220 1.00271357 26226